This is the latest recevied weather packets stored in our database for station/object KD0JCP-10. If no packets are shown the sender has not sent any weather packets the latest 10 day(s).
| Time | Temp. | Humidity | Pressure | Rain* | Wind** | Luminosity | Snow |
|---|---|---|---|---|---|---|---|
| 1777981273 | 8.89° C | 73% | 1011.5 hPa | 0 mm | - | - | - |
| 1777980973 | 8.89° C | 76% | 1011.3 hPa | 0 mm | - | - | - |
| 1777980673 | 8.89° C | 77% | 1011.3 hPa | 0 mm | - | - | - |
| 1777980373 | 8.89° C | 79% | 1011.3 hPa | 0 mm | - | - | - |
| 1777980073 | 8.89° C | 78% | 1011 hPa | 0 mm | - | - | - |
| 1777979773 | 8.89° C | 79% | 1010.9 hPa | 0 mm | - | - | - |
| 1777979474 | 8.89° C | 79% | 1010.8 hPa | 0 mm | - | - | - |
| 1777979174 | 8.89° C | 78% | 1010.8 hPa | 0 mm | - | - | - |
| 1777978874 | 8.89° C | 76% | 1010.8 hPa | 0 mm | - | - | - |
| 1777978574 | 8.89° C | 77% | 1010.5 hPa | 0 mm | - | - | - |
| 1777978274 | 8.89° C | 76% | 1010.3 hPa | 0 mm | - | - | - |
| 1777977974 | 8.89° C | 77% | 1010.2 hPa | 0 mm | - | - | - |
| 1777977674 | 8.89° C | 77% | 1010.2 hPa | 0 mm | - | - | - |
| 1777977374 | 8.89° C | 78% | 1010.2 hPa | 0 mm | - | - | - |
| 1777977074 | 8.89° C | 78% | 1010.2 hPa | 0 mm | - | - | - |
| 1777976774 | 8.89° C | 77% | 1010 hPa | 0 mm | - | - | - |
| 1777976474 | 8.89° C | 75% | 1010 hPa | 0 mm | - | - | - |
| 1777976174 | 9.44° C | 76% | 1010.1 hPa | 0 mm | - | - | - |
| 1777975874 | 8.89° C | 77% | 1010 hPa | 0 mm | - | - | - |
| 1777975574 | 8.89° C | 75% | 1009.9 hPa | 0 mm | - | - | - |
| 1777975274 | 8.89° C | 73% | 1009.9 hPa | 0 mm | - | - | - |
| 1777974974 | 8.89° C | 75% | 1009.8 hPa | 0 mm | - | - | - |
| 1777974674 | 8.89° C | 76% | 1009.8 hPa | 0 mm | - | - | - |
| 1777974374 | 8.89° C | 76% | 1009.9 hPa | 0 mm | - | - | - |
| 1777974074 | 8.89° C | 77% | 1009.8 hPa | 0 mm | - | - | - |
* Rain latest hour (hover to see other rain measurements)
** Current wind speed in m/s (hover to see current wind gust speed)